This is the latest recevied weather packets stored in our database for station/object K5IDL. If no packets are shown the sender has not sent any weather packets the latest 10 day(s).
| Time | Temp. | Humidity | Pressure | Rain* | Wind** | Luminosity | Snow |
|---|---|---|---|---|---|---|---|
| 1777572928 | 16.67° C | 80% | 1015 hPa | 0 mm | - | 158 W/m² | - |
| 1777572624 | 16.67° C | 80% | 1015.3 hPa | 0 mm | - | 96 W/m² | - |
| 1777572319 | 16.11° C | 81% | 1015.3 hPa | 0 mm | - | 103 W/m² | - |
| 1777572016 | 16.11° C | 82% | 1015.6 hPa | 0 mm | - | 83 W/m² | - |
| 1777571715 | 16.11° C | 83% | 1015.8 hPa | 0 mm | - | 60 W/m² | - |
| 1777571413 | 16.11° C | 84% | 1016.1 hPa | 0 mm | - | 49 W/m² | - |
| 1777571109 | 16.11° C | 84% | 1016.2 hPa | 0 mm | - | 42 W/m² | - |
| 1777570805 | 16.11° C | 85% | 1015.7 hPa | 0 mm | - | 73 W/m² | - |
| 1777570501 | 16.67° C | 85% | 1015.9 hPa | 0 mm | - | 35 W/m² | - |
| 1777570197 | 16.67° C | 85% | 1016.1 hPa | 0 mm | - | 46 W/m² | - |
| 1777569893 | 16.67° C | 84% | 1016.3 hPa | 0 mm | - | 51 W/m² | - |
| 1777569589 | 16.67° C | 84% | 1016.3 hPa | 0 mm | - | 43 W/m² | - |
| 1777569286 | 16.67° C | 83% | 1016.3 hPa | 0 mm | - | 60 W/m² | - |
| 1777568982 | 16.67° C | 84% | 1016.5 hPa | 0 mm | - | 72 W/m² | - |
| 1777568679 | 16.67° C | 84% | 1016.6 hPa | 0 mm | - | 63 W/m² | - |
| 1777568377 | 17.22° C | 82% | 1017 hPa | 0 mm | - | 64 W/m² | - |
| 1777568073 | 17.22° C | 82% | 1017.3 hPa | 0 mm | - | 81 W/m² | - |
| 1777567769 | 16.67° C | 82% | 1017.1 hPa | 0 mm | - | 78 W/m² | - |
| 1777567466 | 16.67° C | 82% | 1017.2 hPa | 0 mm | - | 60 W/m² | - |
| 1777567164 | 16.67° C | 82% | 1017.1 hPa | 0 mm | - | 35 W/m² | - |
| 1777566862 | 16.67° C | 82% | 1017.2 hPa | 0 mm | - | 41 W/m² | - |
| 1777566559 | 16.67° C | 82% | 1017.3 hPa | 0 mm | - | 19 W/m² | - |
| 1777566257 | 16.67° C | 82% | 1017.4 hPa | 0 mm | - | 17 W/m² | - |
| 1777565954 | 17.22° C | 81% | 1017.2 hPa | 0 mm | - | 21 W/m² | - |
| 1777565649 | 17.22° C | 81% | 1017.3 hPa | 0 mm | - | 15 W/m² | - |
* Rain latest hour (hover to see other rain measurements)
** Current wind speed in m/s (hover to see current wind gust speed)